STARLINK-35149, 65512

Orbit data source: Space-Track

STARLINK-35149, 65512 is a payload satellite owned by SpaceX/Seattle (US) in LEO that was launched on Fri, 05 Sep 2025 UTC via an FALCON 9 launch vehicle from the Air Force Eastern Test Range (AFETR). Payload-class satellites include a variety of spacecraft equipped with specific instruments for various scientific and technological missions. These include communications satellites like Starlink; space stations such as the ISS; scientific satellites like the Hubble; Earth observation satellites from companies like Planet Labs, Umbra, and HawkEye 360; GPS; miniature CubeSats for education and research; and military/defense satellites.

Loading next visibility...
Identifier
65512, 2025-198W
Orbit
LEO
Country
Flag of USUS
Related business
Manufacturer
SpaceX/Seattle
Mission
Operational Commercial Communications
Bus & Motor
STARLINK V2MO, Unknown motor
Mass
575 kg wet, ~530 kg dry
Launch date (UTC)
2025-09-05 (9 months ago)
Launch vehicle
FALCON 9
Launch site
Air Force Eastern Test Range (AFETR)
Object type
Payload
Rocket body
Debris
Shape & HBR
Box + 2 Pan, 17.7 m
Radar Cross Section
36.964 m², Large (>1 m²)

Expand to show TLE details & history
Last TLE update: 14 hours ago

TLE from 14 hours ago
0 STARLINK-35149
1 65512U 25198W   26171.24576980  .00018114  00000-0  54572-3 0  9993
2 65512  53.1580 153.0862 0001231  78.1167 281.9974 15.34412580 44343
Epoch: 2026-06-20T05:53Z
TLE epoch observation values (Epoch: 2026-06-20T05:53:54.510Z)
Latitude
Longitude
156.14592°
Altitude
463.392 km
Speed
7.636 km/s
True Right ascension
10h 12m 20s
True Declination
0° 00' 00"
Sunlit
Object was in daylight at epoch
Visualization orbit readout
Latitude
Unknown
Longitude
Unknown
Altitude
Unknown
Speed
Unknown
Apparent Right ascension
Unknown
Apparent Declination
Unknown
Sunlit
N/A
Visualization observer readout
Local Sidereal Time
07:13:20
Azimuth
Unknown
Elevation
Unknown
Doppler factor
Unknown
Orbital elements
Apogee altitude
463.765 km
Perigee altitude
462.081 km
Semi-major axis
6,841.06 km
Eccentricity
0.00012
Inclination
53.158°
RAAN
153.0862°
Arg. of periapsis
78.1167°
True anomaly
281.9836°
Mean anomaly
281.9974°
Eccentric anomaly
281.9905°
Mean motion
3.83582 °/min
Orbital period
93.85 mins
BSTAR
0.00054572
Loading maneuver chart data...
Computing Atmospheric mass density...
Loading historical data...
Loading historical data...
Loading historical data...
Loading historical data...
Loading historical data...
Loading historical data...
Loading historical data...

Documentation

Showing up to 5 results
|